Ozona, TX

8:10 PM CDT on March 28, 2017 (GMT -0500)
Ozona Municipal

Weather History for KOZA - March, 2014

Change the Weather History Date:

Tuesday, March 11, 2014

  Actual Average Record
Temperature  
Mean Temperature 68 °F -  
Max Temperature 87 °F 69 °F 87 °F (2014)
Min Temperature 50 °F 43 °F 28 °F (2013)
Cooling Degree Days 4    
Growing Degree Days 18 (Base 50)    
Moisture  
Dew Point 37 °F    
Average Humidity 54    
Maximum Humidity 100    
Minimum Humidity 9    
Precipitation  
Precipitation 0.00 in - - ()
Sea Level Pressure  
Sea Level Pressure 29.81 in    
Wind  
Wind Speed 10 mph (WSW)    
Max Wind Speed 23 mph    
Max Gust Speed 31 mph    
Visibility 7 miles    
Events Fog    
Averages and records for this station are not official NWS values.
T = Trace of Precipitation, MM = Missing Value Source: NWS Daily Summary

Daily Weather History Graph

Daily Weather History Graph

Search for Another Location

Airport or City:

Trip Planner

Search our weather history database for the weather conditions in past years. The results will help you decide how hot, cold, wet, or windy it might be!

Date:

Astronomy

Mar. 11, 2014 Rise Set
Actual Time 7:59 AM CDT 7:50 PM CDT
Civil Twilight 7:35 AM CDT 8:14 PM CDT
Nautical Twilight 7:07 AM CDT 8:42 PM CDT
Astronomical Twilight 6:39 AM CDT 9:10 PM CDT
Moon 3:42 PM CDT (3/11) 4:39 AM CDT (3/11)
Length of Visible Light 12h 39m
Length of Day
11h 50m
Waxing Gibbous, 78% of the Moon is Illuminated
Mar 11
Waxing Gibbous
Mar 16
Full
Mar 23
Last Quarter
Mar 30
New
Apr 7
First Quarter

Hourly Weather History & Observations

Time (CDT) Temp. Dew Point Humidity Pressure Visibility Wind Dir Wind Speed Gust Speed Precip Events Conditions
12:15 AM 50.0 °F 48.2 °F 94% 29.95 in 10.0 mi SSW 5.8 mph - N/A   Clear
12:35 AM 50.0 °F 50.0 °F 100% 29.94 in 10.0 mi South 6.9 mph - N/A   Mostly Cloudy
12:55 AM 51.8 °F 50.0 °F 94% 29.93 in 10.0 mi South 9.2 mph - N/A   Overcast
1:15 AM 51.8 °F 50.0 °F 94% 29.91 in 10.0 mi South 10.4 mph - N/A   Overcast
1:35 AM 51.8 °F 50.0 °F 94% 29.91 in 5.0 mi SSW 9.2 mph - N/A   Overcast
1:55 AM 51.8 °F 50.0 °F 94% 29.90 in 5.0 mi SSW 10.4 mph - N/A   Overcast
2:15 AM 51.8 °F 50.0 °F 94% 29.90 in 2.5 mi SSW 6.9 mph - N/A   Overcast
2:35 AM 51.8 °F 50.0 °F 94% 29.89 in 4.0 mi SSW 9.2 mph - N/A   Overcast
2:55 AM 51.8 °F 50.0 °F 94% 29.89 in 1.0 mi SSW 8.1 mph - N/A   Overcast
3:15 AM 50.0 °F 50.0 °F 100% 29.88 in 1.2 mi SSW 11.5 mph 17.3 mph N/A   Overcast
3:30 AM 50.0 °F 50.0 °F 100% 29.88 in 1.0 mi SSW 12.7 mph 17.3 mph N/A   Overcast
3:55 AM 50.0 °F 50.0 °F 100% 29.87 in 0.5 mi SSW 11.5 mph 17.3 mph N/A Fog Fog
4:15 AM 50.0 °F 50.0 °F 100% 29.86 in 0.8 mi SSW 8.1 mph - N/A   Overcast
4:35 AM 50.0 °F 50.0 °F 100% 29.86 in 0.5 mi SSW 9.2 mph - N/A Fog Fog
4:55 AM 50.0 °F 50.0 °F 100% 29.85 in 1.2 mi SW 10.4 mph - N/A   Overcast
5:15 AM 50.0 °F 50.0 °F 100% 29.83 in 2.5 mi SSW 10.4 mph - N/A   Overcast
5:35 AM 50.0 °F 50.0 °F 100% 29.83 in 1.8 mi South 8.1 mph - N/A   Overcast
5:55 AM 50.0 °F 50.0 °F 100% 29.82 in 2.5 mi SSW 8.1 mph - N/A   Overcast
6:15 AM 50.0 °F 50.0 °F 100% 29.82 in 3.0 mi SSW 8.1 mph - N/A   Overcast
6:35 AM 50.0 °F 50.0 °F 100% 29.82 in 2.5 mi SSW 6.9 mph - N/A   Overcast
6:55 AM 50.0 °F 48.2 °F 94% 29.82 in 3.0 mi SW 9.2 mph - N/A   Overcast
7:15 AM 50.0 °F 48.2 °F 94% 29.82 in 3.0 mi SW 11.5 mph - N/A   Overcast
7:35 AM 50.0 °F 48.2 °F 94% 29.81 in 2.5 mi SSW 8.1 mph - N/A   Overcast
7:55 AM 50.0 °F 48.2 °F 94% 29.82 in 2.5 mi SSW 9.2 mph - N/A   Overcast
8:15 AM 50.0 °F 48.2 °F 94% 29.82 in 1.8 mi SSW 6.9 mph - N/A   Overcast
8:35 AM 50.0 °F 48.2 °F 94% 29.82 in 1.5 mi SW 6.9 mph 17.3 mph N/A   Overcast
8:55 AM 50.0 °F 48.2 °F 94% 29.82 in 2.0 mi SSW 12.7 mph 18.4 mph N/A   Overcast
9:15 AM 50.0 °F 48.2 °F 94% 29.83 in 2.5 mi SSW 11.5 mph 17.3 mph N/A   Overcast
9:35 AM 51.8 °F 50.0 °F 94% 29.83 in 4.0 mi SSW 9.2 mph - N/A   Overcast
9:55 AM 53.6 °F 48.2 °F 82% 29.83 in 7.0 mi SSW 12.7 mph 17.3 mph N/A   Mostly Cloudy
10:15 AM 55.4 °F 48.2 °F 77% 29.83 in 7.0 mi SSW 10.4 mph - N/A   Scattered Clouds
10:35 AM 57.2 °F 48.2 °F 72% 29.83 in 10.0 mi SSW 9.2 mph - N/A   Clear
10:55 AM 60.8 °F 48.2 °F 63% 29.83 in 10.0 mi SW 8.1 mph - N/A   Clear
11:15 AM 62.6 °F 46.4 °F 55% 29.82 in 10.0 mi SW 9.2 mph - N/A   Clear
11:35 AM 64.4 °F 46.4 °F 52% 29.82 in 10.0 mi WSW 10.4 mph - N/A   Clear
11:55 AM 68.0 °F 46.4 °F 46% 29.82 in 10.0 mi WSW 10.4 mph - N/A   Clear
12:15 PM 69.8 °F 44.6 °F 40% 29.82 in 10.0 mi West 6.9 mph 16.1 mph N/A   Clear
12:35 PM 71.6 °F 42.8 °F 35% 29.81 in 10.0 mi WSW 6.9 mph 17.3 mph N/A   Clear
12:55 PM 75.2 °F 39.2 °F 27% 29.80 in 10.0 mi WNW 17.3 mph 24.2 mph N/A   Clear
1:15 PM 77.0 °F 39.2 °F 26% 29.79 in 10.0 mi West 11.5 mph 17.3 mph N/A   Clear
1:35 PM 78.8 °F 37.4 °F 23% 29.78 in 10.0 mi WNW 12.7 mph 23.0 mph N/A   Clear
1:55 PM 80.6 °F 35.6 °F 20% 29.77 in 10.0 mi West 11.5 mph 19.6 mph N/A   Clear
2:15 PM 80.6 °F 33.8 °F 18% 29.76 in 10.0 mi West 16.1 mph 24.2 mph N/A   Clear
2:35 PM 84.2 °F 32.0 °F 15% 29.75 in 10.0 mi West 16.1 mph 20.7 mph N/A   Clear
2:55 PM 86.0 °F 30.2 °F 13% 29.73 in 10.0 mi West 13.8 mph 19.6 mph N/A   Clear
3:15 PM 86.0 °F 28.4 °F 12% 29.72 in 10.0 mi West 21.9 mph 26.5 mph N/A   Clear
3:35 PM 87.8 °F 28.4 °F 12% 29.71 in 10.0 mi WNW 15.0 mph 26.5 mph N/A   Clear
3:55 PM 87.8 °F 26.6 °F 11% 29.70 in 10.0 mi West 19.6 mph 31.1 mph N/A   Clear
4:15 PM 87.8 °F 21.2 °F 9% 29.70 in 10.0 mi WNW 23.0 mph 29.9 mph N/A   Clear
4:35 PM 87.8 °F 23.0 °F 9% 29.69 in 10.0 mi West 16.1 mph 31.1 mph N/A   Clear
4:55 PM 87.8 °F 21.2 °F 9% 29.70 in 10.0 mi WNW 17.3 mph 27.6 mph N/A   Clear
5:15 PM 87.8 °F 21.2 °F 9% 29.70 in 10.0 mi WNW 15.0 mph 26.5 mph N/A   Clear
5:35 PM 87.8 °F 21.2 °F 9% 29.70 in 10.0 mi WNW 18.4 mph 24.2 mph N/A   Clear
5:55 PM 86.0 °F 21.2 °F 9% 29.70 in 10.0 mi WNW 15.0 mph 24.2 mph N/A   Clear
6:15 PM 86.0 °F 19.4 °F 9% 29.70 in 10.0 mi WNW 16.1 mph 24.2 mph N/A   Clear
6:35 PM 86.0 °F 19.4 °F 9% 29.72 in 10.0 mi WNW 15.0 mph 23.0 mph N/A   Clear
6:55 PM 84.2 °F 19.4 °F 9% 29.72 in 10.0 mi WNW 12.7 mph 18.4 mph N/A   Clear
7:15 PM 82.4 °F 19.4 °F 10% 29.73 in 10.0 mi WNW 9.2 mph - N/A   Clear
7:35 PM 80.6 °F 21.2 °F 11% 29.74 in 10.0 mi WNW 8.1 mph - N/A   Clear
7:55 PM 77.0 °F 21.2 °F 12% 29.75 in 10.0 mi WNW 6.9 mph - N/A   Clear
8:15 PM 71.6 °F 21.2 °F 15% 29.76 in 10.0 mi WNW 9.2 mph - N/A   Clear
8:35 PM 69.8 °F 19.4 °F 15% 29.76 in 10.0 mi NW 8.1 mph - N/A   Clear
8:55 PM 66.2 °F 19.4 °F 17% 29.78 in 10.0 mi Calm Calm - N/A   Clear
9:15 PM 64.4 °F 19.4 °F 18% 29.79 in 10.0 mi Calm Calm - N/A   Clear
9:35 PM 62.6 °F 19.4 °F 19% 29.81 in 10.0 mi Calm Calm - N/A   Clear
9:55 PM 59.0 °F 23.0 °F 25% 29.82 in 10.0 mi Calm Calm - N/A   Clear
10:15 PM 59.0 °F 21.2 °F 23% 29.83 in 10.0 mi NNE 4.6 mph - N/A   Clear
10:35 PM 53.6 °F 21.2 °F 28% 29.84 in 10.0 mi NNE 6.9 mph - N/A   Clear
10:55 PM 55.4 °F 21.2 °F 26% 29.85 in 10.0 mi North 5.8 mph - N/A   Clear
11:15 PM 51.8 °F 21.2 °F 30% 29.86 in 10.0 mi NNE 8.1 mph - N/A   Clear
11:35 PM 50.0 °F 21.2 °F 32% 29.86 in 10.0 mi North 5.8 mph - N/A   Clear
11:55 PM 50.0 °F 21.2 °F 32% 29.87 in 10.0 mi North 4.6 mph - N/A   Clear